x

8461490 - New London, Ct (nlnc3) Weather Station

4:54 - Mon 1st Sep 2014 All times are EDT. -4 hours from GMT.

  • Wind
    6mph, 11mph gusts
  • Sea Temp 73°f
  • Luft Temp 82°f
  • Sea Pressure 1012.8mb
  • 8461490 - New London, Ct
  • 8461490 - New London, Ct

More Historic Weather Station data

Upgrade to MSW Pro to gain access to the past 30 days of data for over 8000 Wavebouys and Weather Stations around the globe.

Join Pro

Comparision Forecast

View Surf forecast
   
Mo 09/01 4:54 6 11 mph 1012.8mb 73f 82f
4:48 9 11 mph 1012.9mb 72f 82f
4:42 8 10 mph 1012.9mb 72f 83f
4:36 6 9 mph 1013mb 72f 84f
4:30 6 14 mph 1013mb 72f 84f
4:24 9 13 mph 1013mb 72f 83f
4:18 8 13 mph 1012.9mb 72f 83f
4:12 8 14 mph 1013.1mb 71f 83f
4:06 8 14 mph 1013.2mb 71f 84f
4:00 11 14 mph 1013.3mb 71f 83f
3:54 10 15 mph 1013.3mb 71f 83f
3:48 7 14 mph 1013.2mb 71f 84f
3:42 7 13 mph 1013.3mb 71f 83f
3:36 10 14 mph 1013.3mb 72f 82f
3:30 8 13 mph 1013.4mb 72f 83f
3:24 9 13 mph 1013.4mb 71f 81f
3:18 10 14 mph 1013.4mb 72f 82f
3:12 8 13 mph 1013.4mb 72f 82f
3:06 9 14 mph 1013.5mb 72f 82f
3:00 8 14 mph 1013.6mb 72f 83f
2:54 9 13 mph 1013.5mb 71f 83f
2:48 7 13 mph 1013.5mb 71f 83f
2:42 9 15 mph 1013.5mb 70f 83f
2:36 9 14 mph 1013.6mb 70f 82f
2:30 11 14 mph 1013.6mb 70f 82f
2:24 8 14 mph 1013.6mb 70f 82f
2:18 10 15 mph 1013.8mb 70f 82f
2:12 10 15 mph 1013.9mb 70f 81f
2:06 10 14 mph 1014mb 70f 82f
2:00 13 16 mph 1014.2mb 70f 82f
1:54 11 18 mph 1014.1mb 71f 82f
1:48 11 16 mph 1014.1mb 71f 82f
1:42 9 16 mph 1014.1mb 71f 82f
1:36 8 15 mph 1014.1mb 71f 82f
1:30 10 14 mph 1014.1mb 71f 82f
1:24 8 14 mph 1014.3mb 71f 81f
1:18 8 13 mph 1014.3mb 70f 82f
1:12 7 14 mph 1014.3mb 70f 82f
1:06 8 11 mph 1014.3mb 70f 82f
1:00 9 13 mph 1014.3mb 70f 81f
12:54 8 11 mph 1014.2mb 71f 81f
12:48 7 11 mph 1014.3mb 71f 81f
12:42 8 10 mph 1014.2mb 70f 81f
12:36 9 11 mph 1014.2mb 70f 80f
12:30 6 10 mph 1014.1mb 71f 81f
12:24 9 10 mph 1014.2mb 71f 80f
12:18 6 8 mph 1014.3mb 71f 79f
12:12 8
mph
1014.4mb 71f 78f
12:06 6 7 mph 1014.5mb 71f 78f
12:00 6 8 mph 1014.7mb 71f 78f
11:54 7 10 mph 1014.8mb 71f 78f
11:48 8 10 mph 1014.8mb 72f 77f
11:42 8 10 mph 1014.8mb 72f 78f
11:36 8 10 mph 1014.8mb 72f 78f
11:30 8 10 mph 1014.8mb 71f 77f
11:24 8 9 mph 1014.8mb 71f 77f
11:18 7 10 mph 1014.8mb 71f 78f
11:12 8 11 mph 1014.8mb 71f 77f
11:06 8 13 mph 1014.9mb 71f 77f
11:00 8 10 mph 1015mb 71f 77f
10:54 9 10 mph 1014.9mb 71f 76f
10:48 8 9 mph 1014.9mb 71f 76f
10:42 8 9 mph 1015mb 71f 76f
10:36 8 9 mph 1015mb 71f 75f
10:30 8 9 mph 1014.9mb 71f 76f
10:24 8
mph
1014.9mb 71f 76f
10:18 7 8 mph 1014.9mb 71f 76f
10:12 6 7 mph 1014.9mb 71f 76f
10:06 5 6 mph 1015mb 71f 76f
10:00 6
mph
1015mb 71f 76f
9:54 2 6 mph 1014.9mb 71f 77f
9:48 5 6 mph 1014.9mb 71f 76f
9:42 5 7 mph 1014.9mb 71f 76f
9:36 6 8 mph 1014.9mb 71f 76f
9:30 5 6 mph 1014.8mb 71f 77f
9:24 6
mph
1014.8mb 71f 76f
9:18 5 6 mph 1014.9mb 71f 76f
9:12 5 6 mph 1014.9mb 71f 76f
9:06 3 5 mph 1014.9mb 71f 76f
9:00 1 6 mph 1014.9mb 71f 76f
8:54 2 7 mph 1014.8mb 72f 76f
8:48 6 8 mph 1014.8mb 72f 75f
8:42 3 5 mph 1014.7mb 72f 76f
8:36 2 6 mph 1014.7mb 72f 76f
8:30 5 6 mph 1014.7mb 72f 75f
8:24 3 5 mph 1014.7mb 72f 75f
8:18 3
mph
1014.8mb 72f 74f
8:12 2 6 mph 1015mb 72f 74f
8:06 2 6 mph 1014.9mb 72f 74f
8:00 1 6 mph 1014.9mb 72f 74f
7:54 2 5 mph 1015mb 72f 74f
7:48 2 5 mph 1015mb 72f 74f
7:42 2 6 mph 1015.1mb 72f 74f
7:36 2 6 mph 1015mb 72f 74f
7:30 3 6 mph 1015.1mb 72f 73f
7:24 3 5 mph 1015.1mb 72f 74f
7:18 3 6 mph 1015mb 72f 74f
7:12 2 5 mph 1015.1mb 72f 74f
7:06  -  mph 1015.1mb 72f 74f
7:00  -  2 mph 1015mb 72f 74f
6:54 1 3 mph 1015.1mb 72f 74f
6:48  -  6 mph 1015.1mb 72f 74f
6:42 3 5 mph 1015.1mb 72f 74f
6:36 3 7 mph 1015mb 72f 74f
6:30 5 7 mph 1015mb 72f 74f
6:24 5 8 mph 1015.1mb 72f 74f
6:18 5 8 mph 1015.2mb 72f 74f
6:12 2 6 mph 1015.3mb 72f 74f
6:06 3 6 mph 1015.3mb 72f 74f
6:00 3 6 mph 1015.2mb 72f 74f
5:54 3 6 mph 1015.1mb 72f 74f
5:48 5
mph
1015.1mb 72f 74f
5:42 3
mph
1015mb 72f 74f
5:36 2 3 mph 1014.9mb 72f 74f
5:30 2 3 mph 1014.8mb 72f 74f
5:24 2 3 mph 1014.8mb 72f 74f
5:18 3 6 mph 1014.7mb 72f 74f
5:12 2 5 mph 1014.6mb 72f 74f
5:06 2 5 mph 1014.6mb 72f 74f
5:00 3 6 mph 1014.6mb 72f 74f
4:54 3 5 mph 1014.5mb 72f 74f
4:48 3 5 mph 1014.4mb 72f 74f
4:42 2 3 mph 1014.3mb 72f 74f
4:36  -  3 mph 1014.3mb 72f 74f
4:30 2 3 mph 1014.3mb 72f 74f
4:24  -  3 mph 1014.2mb 72f 74f
4:18 3 5 mph 1014.2mb 72f 74f
4:12 2 3 mph 1014.1mb 72f 74f
4:06 2 3 mph 1014mb 72f 74f
4:00 2 5 mph 1014mb 71f 74f
3:54 1 3 mph 1014mb 71f 74f
3:48 1 3 mph 1014.1mb 71f 74f
3:42 1 3 mph 1014mb 71f 74f
3:36 1 3 mph 1014.1mb 71f 74f
3:30 2
mph
1014.1mb 71f 74f
3:24 2 3 mph 1014.1mb 71f 74f
3:18 1 2 mph 1014mb 71f 74f
3:12 2 5 mph 1014.1mb 71f 74f
3:06  -  2 mph 1014.1mb 71f 73f
3:00  -  1 mph 1014.2mb 71f 74f
2:54  -  mph 1014.2mb 71f 73f
2:48  -  3 mph 1014.3mb 71f 73f
2:42 1 3 mph 1014.4mb 71f 73f
2:36 2 5 mph 1014.5mb 71f 74f
2:30 1 5 mph 1014.3mb 71f 74f
2:24 3 6 mph 1014.3mb 71f 74f
2:18 3 6 mph 1014.3mb 71f 74f
2:12 5 7 mph 1014.4mb 71f 74f
2:06 2 6 mph 1014.5mb 71f 74f
2:00 5 7 mph 1014.5mb 71f 74f
1:54 5 11 mph 1014.4mb 71f 74f
1:48 5 7 mph 1014.4mb 72f 74f
1:42 5 7 mph 1014.4mb 72f 74f
1:36 5 9 mph 1014.4mb 72f 74f
1:30 6 7 mph 1014.4mb 71f 74f
1:24 6 10 mph 1014.5mb 72f 74f
1:18 6 11 mph 1014.5mb 72f 74f
1:12 8 11 mph 1014.5mb 72f 74f
1:06 7 10 mph 1014.6mb 72f 74f
1:00 7 10 mph 1014.6mb 72f 74f
12:54 6 8 mph 1014.7mb 72f 74f
12:48 6 9 mph 1014.7mb 71f 74f
12:42 5 7 mph 1014.7mb 71f 74f
12:36 5 7 mph 1014.7mb 71f 74f
12:30 5 7 mph 1014.8mb 71f 74f
12:24 3 6 mph 1014.8mb 71f 74f
12:18 2 7 mph 1014.7mb 72f 74f
12:12 3 7 mph 1014.7mb 72f 74f
12:06 6 10 mph 1014.8mb 72f 74f
12:00 6 8 mph 1014.6mb 72f 74f
So 08/31 11:54 2 7 mph 1014.7mb 71f 74f
11:48 3 7 mph 1014.7mb 72f 74f
11:42 5 9 mph 1014.7mb 72f 74f
11:36 6 11 mph 1014.8mb 71f 74f
11:30 6 8 mph 1014.9mb 71f 74f
11:24 5 8 mph 1014.9mb 71f 74f
11:18 3 8 mph 1014.9mb 71f 74f
11:12 6 11 mph 1014.8mb 71f 74f
11:06 6 10 mph 1014.9mb 71f 74f
11:00 6 9 mph 1014.9mb 71f 74f
10:54 3 10 mph 1015mb 70f 74f
10:48 5 8 mph 1014.9mb 70f 74f
10:42 5 9 mph 1014.9mb 71f 74f
10:36 5 13 mph 1014.9mb 72f 74f
10:30 5 8 mph 1014.9mb 72f 74f
10:24 3 8 mph 1014.9mb 72f 74f
10:18 5 8 mph 1014.9mb 72f 74f
10:12 6 8 mph 1014.9mb 72f 74f
10:06 5 6 mph 1014.9mb 72f 74f
10:00 3 6 mph 1015mb 72f 74f
9:54 3 5 mph 1015.1mb 71f 74f
9:48  -  3 mph 1015.1mb 71f 74f
9:42 1 3 mph 1015.1mb 72f 74f
9:36 2 5 mph 1015.1mb 72f 74f
9:30 2 5 mph 1015.1mb 72f 74f
9:24 5 6 mph 1015mb 72f 74f
9:18 2 3 mph 1015mb 72f 74f
9:12 3 6 mph 1014.9mb 72f 74f
9:06 5 7 mph 1014.9mb 72f 74f
9:00 3 6 mph 1014.8mb 71f 74f
8:54 6 10 mph 1014.9mb 71f 74f
8:48 8 11 mph 1014.8mb 72f 74f
8:42 8 10 mph 1014.8mb 72f 74f
8:36 6 8 mph 1014.8mb 72f 74f
8:30 7 9 mph 1014.8mb 72f 74f
8:24 8 13 mph 1015mb 72f 74f
8:18 6 13 mph 1015mb 71f 74f
8:12 6 10 mph 1015.1mb 71f 74f
8:06 7 10 mph 1015mb 71f 74f
8:00 7 10 mph 1014.8mb 72f 74f
7:54 7 11 mph 1014.7mb 72f 75f
7:48 9 13 mph 1014.9mb 72f 74f
7:42 8 13 mph 1014.8mb 72f 74f
7:36 8 11 mph 1014.8mb 72f 74f
7:00 8 11 mph 1014.8mb 72f 74f
6:54 9 10 mph 1014.8mb 71f 74f
6:48 9 11 mph 1014.8mb 71f 74f
6:42 9 10 mph 1014.9mb 71f 74f
6:36 8 11 mph 1015.1mb 71f 74f
6:30 9 13 mph 1015.1mb 71f 74f
6:24 8 10 mph 1015mb 71f 74f
6:18 9 10 mph 1015mb 71f 74f
6:12 9 10 mph 1015mb 71f 74f
6:06 8 11 mph 1015.1mb 72f 74f
6:00 9 10 mph 1015.1mb 71f 74f
5:54 9 11 mph 1015.1mb 72f 75f
5:48 8 10 mph 1015.2mb 72f 76f
5:42 8 10 mph 1015.1mb 72f 76f
5:36 8 10 mph 1015.2mb 71f 75f
5:30 9 11 mph 1015mb 71f 74f
5:24 9 11 mph 1015.1mb 72f 74f
5:18 10 11 mph 1015mb 72f 74f
5:12 10 13 mph 1015mb 72f 74f
5:06 11 14 mph 1014.9mb 73f 75f
5:00 10 13 mph 1015mb 73f 75f
4:54 10 13 mph 1015.1mb 72f 75f
4:48 8 13 mph 1015.1mb 72f 75f
4:42 10 13 mph 1015.1mb 72f 75f
4:36 10 13 mph 1015.1mb 72f 75f
4:30 10 11 mph 1015.1mb 72f 75f
4:24 9 10 mph 1015mb 72f 74f
4:18 9 11 mph 1014.9mb 72f 74f
4:12 10 13 mph 1014.9mb 72f 74f
4:06 11 14 mph 1014.9mb 72f 74f
4:00 11 13 mph 1014.9mb 71f 74f
3:54 11 14 mph 1015mb 71f 75f
3:48 13 14 mph 1015mb 71f 75f
3:42 11 14 mph 1015mb 71f 76f
3:36 11 13 mph 1015.2mb 71f 76f
3:30 9 11 mph 1015.5mb 70f 76f
3:24 8 11 mph 1015.6mb 70f 76f
3:18 7 10 mph 1015.7mb 70f 77f
3:12 9 11 mph 1015.7mb 70f 76f
3:06 9 13 mph 1015.8mb 70f 77f
3:00 7 10 mph 1015.9mb 70f 78f
2:54 9 11 mph 1016mb 70f 78f
2:48 10 14 mph 1016mb 70f 79f
2:42 11 14 mph 1016mb 70f 78f
2:36 10 13 mph 1016.1mb 71f 78f
2:30 8 14 mph 1016.1mb 71f 78f
2:24 8 13 mph 1016.2mb 71f 78f
2:18 10 14 mph 1016.2mb 70f 78f
2:12 7 10 mph 1016.3mb 70f 78f
2:06 9 14 mph 1016.4mb 70f 80f
2:00 8 14 mph 1016.5mb 70f 79f
1:54 8 13 mph 1016.5mb 70f 79f
1:48 8 14 mph 1016.7mb 70f 79f
1:42 7 11 mph 1016.7mb 70f 79f
1:36 11 14 mph 1016.7mb 70f 79f
1:30 10 15 mph 1016.8mb 70f 79f
1:24 7 14 mph 1016.8mb 70f 79f
1:18 9 14 mph 1016.8mb 70f 79f
1:12 7 11 mph 1016.8mb 70f 79f
1:06 7 13 mph 1016.9mb 70f 79f
1:00 8 14 mph 1017mb 70f 78f
12:54 9 14 mph 1017mb 70f 78f
12:48 9 14 mph 1017.1mb 70f 78f
12:42 6 10 mph 1017.1mb 70f 77f
12:36 6 10 mph 1017.3mb 70f 76f
12:30 8 10 mph 1017.4mb 70f 76f
12:24 7 11 mph 1017.4mb 70f 76f
12:18 9 11 mph 1017.5mb 70f 76f
12:12 10 15 mph 1017.6mb 70f 76f
12:06 8 15 mph 1017.6mb 70f 76f
12:00 9 14 mph 1017.7mb 70f 76f
11:54 10 16 mph 1017.7mb 70f 76f
11:48 9 11 mph 1017.8mb 70f 76f
11:42 9 13 mph 1017.9mb 70f 76f
11:36 8 13 mph 1018mb 70f 76f
11:30 6 9 mph 1018mb 71f 75f
11:24 5 7 mph 1018.1mb 70f 75f
11:18 7 8 mph 1018.1mb 70f 74f
11:12 6 11 mph 1018.2mb 71f 74f
11:06 6 9 mph 1018.3mb 70f 75f
11:00 7 9 mph 1018.3mb 70f 75f
10:54 6 9 mph 1018.4mb 71f 75f
10:48 8 10 mph 1018.4mb 71f 75f
10:42 6 9 mph 1018.5mb 71f 75f
10:36 8 11 mph 1018.6mb 71f 75f
10:30 6 13 mph 1018.6mb 70f 75f
10:24 8 13 mph 1018.7mb 70f 75f
10:18 9 13 mph 1018.8mb 70f 75f
10:12 9 13 mph 1018.8mb 71f 75f
10:06 6 10 mph 1018.8mb 71f 75f
10:00 8 11 mph 1018.9mb 71f 75f
9:54 8 10 mph 1018.9mb 70f 75f
9:48 8 11 mph 1018.8mb 70f 75f
9:42 7 10 mph 1018.9mb 71f 74f
9:36 9 11 mph 1018.9mb 71f 74f
9:30 7 10 mph 1019mb 71f 74f
9:24 7 11 mph 1019mb 71f 74f
9:18 7 11 mph 1019mb 71f 74f
9:12 8 13 mph 1019mb 71f 74f
9:06 7 10 mph 1019mb 71f 74f
9:00 8 11 mph 1019.1mb 71f 74f
8:54 8 11 mph 1019mb 71f 74f
8:48 7 10 mph 1019mb 71f 74f
8:42 6 9 mph 1019mb 71f 74f
8:36 6 9 mph 1019.1mb 71f 74f
8:30 8 10 mph 1019.1mb 71f 74f
8:24 7 9 mph 1019.1mb 71f 74f
8:18 7 9 mph 1019.1mb 71f 74f
8:12 8 10 mph 1019.2mb 71f 73f
8:06 8 11 mph 1019.1mb 71f 73f
8:00 7 9 mph 1019.1mb 71f 73f
7:54 7 9 mph 1019.1mb 71f 73f
7:48 8 9 mph 1019.1mb 71f 73f
7:42 6 10 mph 1019.1mb 71f 72f
7:36 7 10 mph 1019.1mb 71f 72f
7:30 7 9 mph 1019.1mb 71f 72f
7:24 7 10 mph 1019.1mb 71f 72f
7:18 7 10 mph 1019.2mb 71f 72f
7:12 8 10 mph 1019.3mb 71f 72f
7:06 7 9 mph 1019.3mb 71f 72f
7:00 7 9 mph 1019.3mb 71f 72f
6:54 5 8 mph 1019.3mb 71f 72f
6:48 7 9 mph 1019.3mb 71f 72f
6:42 6 8 mph 1019.3mb 71f 72f
6:36 5 8 mph 1019.3mb 71f 72f
6:30 6 9 mph 1019.3mb 71f 72f
6:24 6 7 mph 1019.4mb 71f 72f
6:18 6 7 mph 1019.4mb 71f 72f
6:12 7 8 mph 1019.3mb 71f 72f
6:06 6 7 mph 1019.3mb 71f 72f
6:00 6 8 mph 1019.4mb 71f 72f
5:54 6 9 mph 1019.4mb 71f 72f
5:48 5 9 mph 1019.4mb 71f 72f
5:42 5 10 mph 1019.4mb 71f 72f
5:36 6 9 mph 1019.4mb 71f 72f
5:30 5 7 mph 1019.3mb 71f 72f
5:24 5 8 mph 1019.3mb 71f 72f
5:18 7 9 mph 1019.3mb 71f 72f
5:12 7 10 mph 1019.4mb 71f 72f
5:06 6 8 mph 1019.3mb 71f 71f
5:00 6 8 mph 1019.4mb 71f 71f
4:54 5 8 mph 1019.4mb 71f 71f
4:48 6 7 mph 1019.4mb 71f 71f
4:42 5 7 mph 1019.4mb 71f 71f
4:36 6 8 mph 1019.4mb 71f 71f
4:30 6 7 mph 1019.4mb 71f 71f
4:24 6 8 mph 1019.5mb 71f 71f
4:18 6 11 mph 1019.5mb 71f 71f
4:12 7 10 mph 1019.5mb 71f 71f
4:06 6 9 mph 1019.6mb 70f 71f
4:00 6 10 mph 1019.6mb 70f 71f
3:54 7 9 mph 1019.6mb 70f 71f
3:48 7 10 mph 1019.6mb 70f 71f
3:42 7 8 mph 1019.7mb 70f 71f
3:36 6 8 mph 1019.7mb 70f 71f
3:30 7 10 mph 1019.8mb 70f 71f
3:24 7 10 mph 1019.8mb 70f 71f
3:18 7 9 mph 1019.8mb 70f 71f
3:12 8 13 mph 1019.8mb 70f 71f
3:06 7 10 mph 1019.8mb 70f 71f
3:00 7 10 mph 1019.9mb 70f 71f
2:54 8 11 mph 1019.9mb 70f 71f
2:48 7 10 mph 1019.9mb 70f 71f
2:42 8 10 mph 1019.9mb 70f 71f
2:36 8 11 mph 1019.9mb 70f 71f
2:30 8 11 mph 1020mb 70f 71f
2:24 9 13 mph 1020mb 70f 71f
2:18 8 11 mph 1020.1mb 70f 71f
2:12 8 14 mph 1020.2mb 70f 71f
2:06 8 10 mph 1020.3mb 70f 71f
2:00 8 11 mph 1020.4mb 70f 71f
1:54 8 10 mph 1020.4mb 70f 71f
1:48 8 9 mph 1020.5mb 70f 71f
1:42 7 10 mph 1020.5mb 70f 71f
1:36 9 14 mph 1020.5mb 70f 71f
1:30 7 11 mph 1020.5mb 70f 71f
1:24 7 11 mph 1020.5mb 70f 71f
1:18 7 11 mph 1020.7mb 70f 71f
1:12 7 9 mph 1020.7mb 70f 71f
1:06 7 9 mph 1020.7mb 70f 71f
1:00 6 9 mph 1020.6mb 70f 71f
12:54 7 9 mph 1020.6mb 70f 71f
12:48 8 10 mph 1020.6mb 70f 71f
12:42 8 11 mph 1020.6mb 70f 71f
12:36 9 10 mph 1020.6mb 70f 71f
12:30 8 11 mph 1020.5mb 70f 71f
12:24 8 11 mph 1020.5mb 70f 71f
12:18 8 10 mph 1020.5mb 70f 71f
12:12 7 9 mph 1020.5mb 70f 71f
12:06 7 9 mph 1020.5mb 70f 70f
12:00 7 9 mph 1020.5mb 70f 70f
Sa 08/30 11:54 7 9 mph 1020.5mb 70f 70f
11:48 8 9 mph 1020.6mb 70f 70f
11:42 7 9 mph 1020.6mb 70f 70f
11:36 8 9 mph 1020.6mb 70f 70f
11:30 8 10 mph 1020.7mb 70f 70f
11:24 8 9 mph 1020.7mb 70f 70f
11:18 7 10 mph 1020.7mb 70f 70f
11:12 6 10 mph 1020.7mb 70f 70f
11:06 7 8 mph 1020.8mb 70f 70f
11:00 7 8 mph 1020.9mb 70f 70f
10:54 6 9 mph 1020.8mb 70f 70f
10:48 7 8 mph 1020.9mb 71f 70f
10:42 8 11 mph 1021mb 71f 70f
10:36 7 8 mph 1021mb 71f 70f
10:30 7 10 mph 1021mb 71f 70f
10:24 7 8 mph 1021mb 71f 70f
10:18 6 8 mph 1021.1mb 71f 70f
10:12 6 8 mph 1021.1mb 71f 70f
10:06 8 10 mph 1021.1mb 71f 70f
10:00 9 11 mph 1021.1mb 71f 70f
9:54 8 10 mph 1021mb 71f 70f
9:48 8 11 mph 1021.1mb 71f 70f
9:42 10 13 mph 1021.2mb 71f 70f
9:36 9 11 mph 1021.3mb 71f 70f
9:30 8 10 mph 1021.2mb 71f 70f
9:24 7 13 mph 1021.2mb 71f 70f
9:18 9 13 mph 1021.2mb 71f 70f
9:12 9 11 mph 1021.1mb 71f 70f
9:06 9 13 mph 1021.2mb 71f 70f
9:00 10 14 mph 1021.1mb 71f 70f
8:54 9 11 mph 1021.1mb 71f 70f
8:48 9 14 mph 1021.2mb 71f 70f
8:42 10 14 mph 1021.1mb 71f 70f
8:36 10 14 mph 1021.2mb 71f 70f
8:30 11 15 mph 1021.2mb 71f 70f
8:24 10 13 mph 1021.2mb 71f 70f
8:18 10 14 mph 1021.1mb 71f 70f
8:12 11 15 mph 1021.1mb 71f 70f
8:06 10 13 mph 1021.1mb 71f 70f
8:00 8 13 mph 1021mb 71f 70f
7:54 11 14 mph 1021.1mb 71f 70f
7:48 8 11 mph 1021.1mb 71f 70f
7:42 9 14 mph 1021.1mb 71f 70f
7:36 10 13 mph 1021.1mb 71f 70f
7:30 10 13 mph 1021mb 71f 70f
7:24 10 13 mph 1021.1mb 71f 71f
7:18 10 14 mph 1021.1mb 71f 71f
7:12 10 15 mph 1021.1mb 71f 71f
7:06 11 14 mph 1021.1mb 71f 71f
7:00 11 15 mph 1021.1mb 71f 71f
6:54 9 15 mph 1021.2mb 71f 71f
6:48 13 16 mph 1021.2mb 71f 71f
6:42 11 15 mph 1021.3mb 71f 71f
6:36 10 14 mph 1021.4mb 71f 71f
6:30 13 16 mph 1021.5mb 71f 71f
6:24 11 14 mph 1021.5mb 71f 71f
6:18 11 15 mph 1021.4mb 71f 70f
6:12 13 14 mph 1021.5mb 71f 70f
6:06 14 16 mph 1021.6mb 71f 70f
6:00 14 16 mph 1021.6mb 71f 70f
5:54 14 16 mph 1021.7mb 71f 70f
5:48 13 16 mph 1021.6mb 71f 70f
5:42 14 15 mph 1021.6mb 71f 70f
5:36 14 15 mph 1021.7mb 71f 70f
5:30 13 16 mph 1021.7mb 71f 70f
5:24 13 15 mph 1021.7mb 71f 70f
5:18 14 16 mph 1021.7mb 71f 70f
5:12 11 16 mph 1021.7mb 71f 70f
5:06 14 15 mph 1021.8mb 71f 70f
5:00 14 15 mph 1021.9mb 71f 70f
4:54 13 15 mph 1021.9mb 71f 70f
4:48 13 15 mph 1022mb 71f 70f
4:42 14 16 mph 1022mb 71f 70f
4:36 14 16 mph 1022.2mb 71f 70f
4:30 13 15 mph 1022.2mb 71f 70f
4:24 13 15 mph 1022.3mb 71f 70f
4:18 13 15 mph 1022.4mb 71f 70f
4:12 13 15 mph 1022.4mb 71f 70f
4:06 14 16 mph 1022.5mb 71f 70f
4:00 13 16 mph 1022.5mb 71f 70f
3:54 14 16 mph 1022.6mb 71f 70f
3:48 11 15 mph 1022.6mb 71f 70f
3:42 14 16 mph 1022.8mb 71f 70f
3:36 13 15 mph 1022.8mb 71f 70f
3:30 13 15 mph 1023mb 71f 70f
3:24 13 15 mph 1023mb 71f 70f
3:18 13 15 mph 1023mb 71f 70f
3:12 13 15 mph 1023.1mb 71f 70f
3:06 14 15 mph 1023.2mb 71f 70f
3:00 14 15 mph 1023.2mb 71f 70f
2:54 13 15 mph 1023.3mb 71f 70f
2:48 11 15 mph 1023.3mb 71f 70f
2:42 14 15 mph 1023.3mb 71f 70f
2:36 14 15 mph 1023.4mb 71f 70f
2:30 13 15 mph 1023.4mb 71f 70f
2:24 13 15 mph 1023.5mb 71f 70f
2:18 14 15 mph 1023.6mb 71f 70f
2:12 13 15 mph 1023.6mb 71f 70f
2:06 13 15 mph 1023.7mb 71f 70f
2:00 13 15 mph 1023.7mb 71f 70f
1:54 13 15 mph 1023.7mb 70f 70f
1:48 13 15 mph 1023.8mb 70f 70f
1:42 13 15 mph 1023.8mb 70f 70f
1:36 13 14 mph 1023.8mb 70f 70f
1:30 13 15 mph 1023.8mb 70f 70f
1:24 13 14 mph 1023.7mb 70f 70f
1:18 13 14 mph 1023.8mb 70f 70f
1:12 13 14 mph 1023.9mb 70f 70f
1:06 11 16 mph 1024mb 70f 70f
1:00 13 14 mph 1024.1mb 70f 70f
12:54 11 15 mph 1024.1mb 70f 70f
12:48 11 14 mph 1024.2mb 70f 70f
12:42 10 14 mph 1024.2mb 70f 70f
12:36 10 14 mph 1024.3mb 70f 70f
12:30 11 14 mph 1024.4mb 70f 69f
12:24 10 14 mph 1024.5mb 70f 69f
12:18 11 14 mph 1024.5mb 70f 69f
12:12 10 14 mph 1024.4mb 70f 69f
12:06 10 13 mph 1024.5mb 70f 69f
12:00 10 13 mph 1024.5mb 70f 69f
11:54 11 14 mph 1024.6mb 70f 69f
11:48 10 13 mph 1024.7mb 70f 69f
11:42 11 14 mph 1024.7mb 70f 69f
11:36 11 14 mph 1024.8mb 70f 69f
11:30 9 14 mph 1024.9mb 70f 69f
11:24 11 14 mph 1024.9mb 70f 69f
11:18 10 13 mph 1025mb 69f 69f
11:12 13 15 mph 1024.9mb 70f 69f
11:06 11 14 mph 1024.9mb 70f 69f
11:00 9 13 mph 1024.9mb 69f 69f
10:54 8 14 mph 1024.9mb 70f 69f
10:48 9 13 mph 1025mb 70f 68f
10:42 9 13 mph 1025.1mb 70f 69f
10:36 9 13 mph 1025.1mb 70f 68f
10:30 8 11 mph 1025.1mb 70f 68f
10:24 11 14 mph 1025.1mb 70f 68f
10:18 9 14 mph 1025.1mb 70f 68f
10:12 10 14 mph 1025.1mb 70f 68f
10:06 9 13 mph 1025.1mb 70f 68f
10:00 10 13 mph 1025mb 70f 68f
9:54 9 13 mph 1025mb 70f 67f
9:48 10 13 mph 1025mb 70f 68f
9:42 10 13 mph 1025mb 70f 67f
9:36 9 11 mph 1025.1mb 70f 68f
9:30 10 13 mph 1025.1mb 70f 67f
9:24 9 11 mph 1025.1mb 69f 67f
9:18 10 14 mph 1025mb 69f 67f
9:12 8 10 mph 1025mb 69f 67f
9:06 5 7 mph 1024.9mb 69f 67f
9:00  -  3 mph 1025mb 69f 66f
8:54  -  2 mph 1025mb 70f 65f
8:48 1 3 mph 1025.1mb 70f 64f
8:42 2 5 mph 1025.1mb 70f 64f
8:36 3 6 mph 1025.1mb 70f 63f
8:30 3 6 mph 1025.2mb 70f 63f
8:24 5 6 mph 1025.2mb 70f 62f
8:18 5 6 mph 1025.3mb 70f 62f
8:12 5 6 mph 1025.3mb 70f 61f
8:06 5 6 mph 1025.3mb 70f 61f
8:00 3 7 mph 1025.3mb 70f 61f
7:54 6 7 mph 1025.3mb 70f 60f
7:48 6 7 mph 1025.3mb 70f 60f
7:42 6 7 mph 1025.4mb 70f 59f
7:36 6 8 mph 1025.4mb 70f 59f
7:30 6 8 mph 1025.4mb 70f 59f
7:24 6 7 mph 1025.4mb 70f 59f
7:18 6 7 mph 1025.5mb 70f 58f
7:12 6 8 mph 1025.4mb 70f 58f
7:06 5 7 mph 1025.3mb 70f 58f
7:00 6 8 mph 1025.3mb 70f 58f
6:54 7 9 mph 1025.3mb 70f 58f
6:48 7 8 mph 1025.3mb 70f 57f
6:42 7 8 mph 1025.4mb 70f 57f
6:36 7 9 mph 1025.4mb 70f 57f
6:30 7 8 mph 1025.4mb 70f 57f
6:24 6 8 mph 1025.5mb 70f 57f
6:18 6 8 mph 1025.3mb 70f 57f
6:12 6 7 mph 1025.3mb 70f 57f
6:06 6 7 mph 1025.2mb 70f 58f
6:00 6 7 mph 1025.1mb 70f 58f
5:54 6 7 mph 1025.1mb 70f 58f
5:48 5 8 mph 1025mb 70f 58f
5:42 6 7 mph 1024.9mb 70f 58f
5:36 6 7 mph 1024.9mb 70f 58f
5:30 6 7 mph 1024.8mb 70f 58f
5:24 6 7 mph 1024.9mb 70f 58f
5:18 5 7 mph 1024.8mb 70f 58f
5:12 6 8 mph 1024.8mb 70f 58f
5:06 6 7 mph 1024.7mb 70f 58f
5:00 6 7 mph 1024.7mb 70f 58f
4:54 6 7 mph 1024.7mb 70f 58f
4:48 5 7 mph 1024.5mb 70f 59f
4:42 6 8 mph 1024.4mb 70f 59f
4:36 7 8 mph 1024.5mb 70f 59f
4:30 7 8 mph 1024.5mb 70f 59f
4:24 5 7 mph 1024.5mb 70f 59f
4:18 6 7 mph 1024.5mb 70f 59f
4:12 6 7 mph 1024.4mb 70f 59f
4:06 6 7 mph 1024.4mb 70f 59f
4:00 6 8 mph 1024.3mb 70f 60f
3:54 6 8 mph 1024.3mb 70f 59f
3:48 6 8 mph 1024.4mb 70f 60f
3:42 7 8 mph 1024.4mb 70f 60f
3:36 6 7 mph 1024.4mb 70f 60f
3:30 6 7 mph 1024.4mb 70f 60f
3:24 5 7 mph 1024.4mb 70f 60f
3:18 5 7 mph 1024.4mb 70f 60f
3:12 5 8 mph 1024.5mb 70f 60f
3:06 5 7 mph 1024.4mb 70f 60f
3:00 5 6 mph 1024.3mb 70f 60f
2:54 6 7 mph 1024.3mb 70f 61f
2:48 5 6 mph 1024.3mb 70f 61f
2:42 6 7 mph 1024.5mb 70f 61f
2:36 6 7 mph 1024.5mb 70f 61f
2:30 6 7 mph 1024.5mb 70f 61f
2:24 6
mph
1024.6mb 70f 61f
2:18 5 6 mph 1024.6mb 70f 61f
2:12 6 7 mph 1024.6mb 70f 61f
2:06 6 7 mph 1024.6mb 70f 62f
2:00 5 7 mph 1024.6mb 70f 62f
1:54 5 7 mph 1024.5mb 70f 62f
1:48 5 6 mph 1024.6mb 70f 62f
1:42 5 6 mph 1024.6mb 70f 62f
1:36 5 6 mph 1024.6mb 70f 63f
1:30 3 5 mph 1024.6mb 70f 63f
1:24 3 5 mph 1024.6mb 70f 63f
1:18 3
mph
1024.6mb 70f 64f
1:12 1 3 mph 1024.6mb 70f 64f
1:06 2 3 mph 1024.5mb 70f 64f
1:00 2 3 mph 1024.6mb 70f 64f
12:54 3 5 mph 1024.6mb 70f 64f
12:48 3 5 mph 1024.5mb 70f 64f
12:42 3 5 mph 1024.4mb 70f 64f
12:36 3 5 mph 1024.3mb 70f 64f
12:30 3 5 mph 1024.2mb 70f 65f
12:24 3 6 mph 1024.2mb 70f 65f
12:18 6 7 mph 1024.1mb 70f 65f
12:12 5 6 mph 1024.1mb 70f 65f
12:06 5 6 mph 1024mb 70f 66f
12:00 5 6 mph 1024mb 70f 65f
Fr 08/29 11:54 5 6 mph 1024mb 70f 66f
11:48 5 8 mph 1024mb 70f 66f
11:42 5 7 mph 1024mb 70f 66f
11:36 5 7 mph 1024mb 70f 66f
11:30 6 8 mph 1024mb 70f 66f
11:24 6 8 mph 1024mb 70f 66f
11:18 6 7 mph 1024.1mb 70f 66f
11:12 5 8 mph 1024mb 70f 66f
11:06 7 8 mph 1024mb 70f 66f
11:00 6 8 mph 1024.1mb 70f 66f
10:54 6 10 mph 1024.1mb 70f 66f
10:48 6 8 mph 1024.1mb 71f 67f
10:42 5 9 mph 1024mb 70f 67f
10:36 6 8 mph 1024.1mb 70f 67f
10:30 6 9 mph 1024.1mb 70f 67f
10:24 5 9 mph 1024.2mb 70f 67f
10:18 7 9 mph 1024.2mb 70f 67f
10:12 8 9 mph 1024.2mb 70f 67f
10:06 6 8 mph 1024.1mb 70f 67f
10:00 6 8 mph 1024.1mb 70f 67f
9:54 7 8 mph 1024mb 70f 67f
9:48 6 8 mph 1023.8mb 69f 67f
9:42 7 11 mph 1023.8mb 69f 67f
9:36 8 11 mph 1023.8mb 70f 67f
9:30 7 8 mph 1023.8mb 69f 67f
9:24 6 8 mph 1023.7mb 69f 67f
9:18 7 8 mph 1023.7mb 70f 67f
9:12 6 8 mph 1023.7mb 70f 67f
9:06 7 8 mph 1023.7mb 70f 67f
9:00 5 7 mph 1023.6mb 70f 67f
8:54 5 7 mph 1023.6mb 70f 67f
8:48 5 8 mph 1023.5mb 70f 67f
8:42 6 8 mph 1023.4mb 71f 67f
8:36 6 7 mph 1023.3mb 71f 67f
8:30 6 7 mph 1023.2mb 71f 67f
8:24 6 7 mph 1023.1mb 71f 67f
8:18 6 8 mph 1023.1mb 71f 67f
8:12 6 7 mph 1023mb 71f 66f
8:06 6 7 mph 1022.9mb 71f 67f
8:00 6 7 mph 1022.9mb 71f 67f
7:54 6 7 mph 1022.8mb 71f 67f
7:48 6 7 mph 1022.8mb 71f 67f
7:42 5 7 mph 1022.8mb 71f 67f
7:36 6 7 mph 1022.7mb 71f 67f
7:30 6 7 mph 1022.7mb 71f 67f
7:24 6 7 mph 1022.6mb 71f 68f
7:18 6 7 mph 1022.7mb 71f 68f
7:12 6 8 mph 1022.5mb 71f 68f
7:06 7 9 mph 1022.5mb 71f 68f
7:00 8 10 mph 1022.5mb 71f 68f
6:54 7 10 mph 1022.5mb 71f 68f
6:48 7 11 mph 1022.4mb 71f 69f
6:42 8 10 mph 1022.4mb 71f 69f
6:36 8 13 mph 1022.3mb 71f 69f
6:30 7 11 mph 1022.3mb 71f 69f
6:24 8 13 mph 1022.2mb 71f 69f
6:18 9 11 mph 1022.1mb 71f 69f
6:12 8 10 mph 1022mb 71f 69f
6:06 7 9 mph 1021.9mb 71f 69f
6:00 9 11 mph 1021.9mb 70f 69f
5:54 8 13 mph 1021.9mb 71f 70f
5:48 10 11 mph 1022mb 71f 69f
5:42 8 13 mph 1021.9mb 71f 70f
5:36 10 13 mph 1022mb 70f 70f
5:30 9 11 mph 1021.9mb 71f 70f
5:24 10 11 mph 1021.9mb 71f 70f
5:18 10 11 mph 1021.9mb 70f 70f
5:12 9 11 mph 1021.9mb 70f 70f
5:06 10 11 mph 1021.8mb 71f 70f
5:00 9 11 mph 1021.8mb 70f 70f
4:54 9 13 mph 1021.8mb 70f 70f
4:48 10 13 mph 1021.8mb 70f 70f
4:42 9 10 mph 1021.7mb 70f 70f
4:36 9 11 mph 1021.7mb 70f 70f
4:30 10 11 mph 1021.7mb 70f 70f
4:24 9 10 mph 1021.7mb 70f 70f
4:18 8 11 mph 1021.6mb 71f 69f
4:12 9 11 mph 1021.6mb 71f 69f
4:06 9 11 mph 1021.6mb 71f 70f
4:00 9 11 mph 1021.5mb 70f 70f
3:54 11 13 mph 1021.4mb 70f 69f
3:48 9 10 mph 1021.4mb 70f 69f
3:42 9 11 mph 1021.5mb 70f 70f
3:36 9 13 mph 1021.5mb 71f 69f
3:30 9 13 mph 1021.6mb 70f 69f
3:24 9 11 mph 1021.6mb 70f 70f
3:18 10 11 mph 1021.5mb 70f 69f
3:12 10 13 mph 1021.5mb 70f 69f
3:06 11 13 mph 1021.5mb 70f 69f
3:00 10 13 mph 1021.6mb 70f 69f
2:54 11 14 mph 1021.6mb 70f 69f
2:48 10 13 mph 1021.6mb 70f 69f
2:42 11 14 mph 1021.6mb 70f 69f
2:36 13 14 mph 1021.6mb 70f 69f
2:30 13 14 mph 1021.6mb 70f 69f
2:24 13 14 mph 1021.4mb 70f 69f
2:18 13 14 mph 1021.3mb 70f 69f
2:12 11 14 mph 1021.3mb 70f 69f
2:06 13 14 mph 1021.3mb 70f 69f
2:00 13 14 mph 1021.3mb 70f 69f
1:54 11 14 mph 1021.4mb 69f 69f
1:48 11 13 mph 1021.5mb 69f 69f
1:42 11 14 mph 1021.5mb 70f 69f
1:36 11 13 mph 1021.5mb 70f 69f
1:30 11 13 mph 1021.4mb 70f 69f
1:24 11 14 mph 1021.4mb 70f 69f
1:18 11 14 mph 1021.4mb 70f 69f
1:12 11 14 mph 1021.4mb 70f 69f
1:06 11 15 mph 1021.2mb 70f 69f
1:00 13 14 mph 1021.1mb 70f 68f
12:54 11 14 mph 1021.1mb 70f 69f
12:48 11 14 mph 1021.1mb 70f 69f
12:42 9 13 mph 1021mb 70f 69f
12:36 9 13 mph 1021.1mb 70f 69f
12:30 7 10 mph 1021.1mb 70f 70f
12:24 6 8 mph 1021.1mb 70f 71f
12:18 2 5 mph 1021.1mb 70f 71f
12:12 3 6 mph 1021.1mb 70f 72f
12:06 2 5 mph 1021.1mb 70f 72f
12:00 2 6 mph 1021mb 69f 73f
11:54 2 6 mph 1021mb 69f 73f
11:48 5 7 mph 1021mb 70f 72f
11:42  -  6 mph 1021mb 70f 72f
11:36 2 7 mph 1021mb 69f 71f
11:30 3 7 mph 1021mb 69f 72f
11:24 1 3 mph 1021mb 69f 70f
11:18  -  7 mph 1021.1mb 70f 70f
11:12  -  3 mph 1021.1mb 70f 70f
11:06 1 5 mph 1021.1mb 70f 70f
11:00 3 5 mph 1021.1mb 69f 69f
10:54 3 5 mph 1021.2mb 69f 69f
10:48 5 6 mph 1021.1mb 69f 69f
10:42 3 7 mph 1021.1mb 69f 70f
10:36 5 7 mph 1021.1mb 69f 70f
10:30 5 7 mph 1021mb 69f 69f
10:24 3 7 mph 1021mb 69f 69f
10:18 5 7 mph 1021mb 69f 69f
10:12 5 7 mph 1021mb 69f 68f
10:06 6 9 mph 1021mb 69f 67f
10:00 6 9 mph 1020.9mb 69f 67f
9:54 7 9 mph 1020.9mb 69f 67f
9:48 5 10 mph 1020.8mb 69f 67f
9:42 5 10 mph 1020.8mb 69f 67f
9:36 7 10 mph 1020.6mb 69f 66f
9:30 6 8 mph 1020.5mb 69f 66f
9:24 3 9 mph 1020.5mb 69f 66f
9:18 6 9 mph 1020.4mb 69f 66f
9:12 5 10 mph 1020.3mb 69f 66f
9:06 7 10 mph 1020.2mb 69f 65f
9:00 8 10 mph 1020.2mb 69f 64f
8:54 6 13 mph 1020.2mb 69f 64f
8:48 8 13 mph 1020mb 69f 64f
8:42 9 13 mph 1020mb 69f 63f
8:36 9 14 mph 1020mb 69f 63f
8:30 8 11 mph 1020mb 69f 63f
8:24 8 11 mph 1019.9mb 69f 62f
8:18 7 10 mph 1019.8mb 69f 62f
8:12 5 9 mph 1019.8mb 70f 62f
8:06 6 8 mph 1019.8mb 70f 62f
8:00 7 11 mph 1019.8mb 70f 62f
7:54 8 13 mph 1019.6mb 71f 61f
7:48 7 10 mph 1019.6mb 71f 62f
7:42 8 11 mph 1019.4mb 71f 61f
7:36 8 13 mph 1019.5mb 71f 61f
7:30 8 13 mph 1019.4mb 71f 61f
7:24 8 13 mph 1019.3mb 71f 61f
7:18 6 9 mph 1019.1mb 71f 62f
7:12 3 7 mph 1019.1mb 71f 62f
7:06 5 7 mph 1019mb 71f 62f
7:00 5 7 mph 1019.1mb 71f 62f
6:54 2 5 mph 1019mb 71f 62f
6:48 3 5 mph 1018.9mb 71f 61f
6:42 2 3 mph 1018.9mb 71f 60f
6:36 2 3 mph 1018.8mb 71f 60f
6:30 2 5 mph 1018.7mb 71f 59f
6:24 3 5 mph 1018.5mb 71f 59f
6:18 2 3 mph 1018.5mb 71f 59f
6:12 2 5 mph 1018.3mb 71f 59f
6:06 3 5 mph 1018.3mb 71f 59f
6:00 2 5 mph 1018.2mb 71f 59f
5:54 3 6 mph 1018.1mb 71f 60f
5:48 3 6 mph 1017.9mb 71f 60f
5:42 2 6 mph 1017.9mb 71f 60f
5:36 3 6 mph 1017.7mb 71f 60f
5:30 5 7 mph 1017.6mb 71f 60f
5:24 3 6 mph 1017.6mb 71f 60f
5:18 3 7 mph 1017.5mb 71f 61f
5:12 3 6 mph 1017.5mb 71f 61f
5:06 2 6 mph 1017.5mb 71f 61f
5:00 2 5 mph 1017.4mb 71f 61f
4:54 3 6 mph 1017.3mb 71f 61f
4:48 3 7 mph 1017.3mb 71f 61f
4:42 3 6 mph 1017.1mb 71f 62f
4:36 5 7 mph 1017.2mb 71f 62f
4:30 5 8 mph 1017mb 71f 62f
4:24 3 6 mph 1017.1mb 71f 62f
4:18 3 7 mph 1016.9mb 71f 62f
4:12 1 6 mph 1016.9mb 71f 62f
4:06 6 8 mph 1016.9mb 71f 63f
4:00 2 7 mph 1016.8mb 71f 62f
3:54 3 8 mph 1016.7mb 71f 63f
3:48 5 9 mph 1016.8mb 71f 63f
3:42 6 10 mph 1016.6mb 71f 63f
3:36 7 13 mph 1016.7mb 71f 63f
3:30 6 10 mph 1016.6mb 71f 63f
3:24 8 11 mph 1016.6mb 71f 63f
3:18 7 13 mph 1016.6mb 71f 63f
3:12 7 13 mph 1016.6mb 71f 63f
3:06 7 14 mph 1016.5mb 71f 63f
3:00 6 14 mph 1016.5mb 71f 64f
2:54 7 14 mph 1016.4mb 71f 64f
2:48 8 13 mph 1016.4mb 71f 64f
2:42 8 14 mph 1016.3mb 71f 64f
2:36 9 13 mph 1016.4mb 71f 64f
2:30 10 16 mph 1016.3mb 71f 64f
2:24 6 10 mph 1016.4mb 71f 64f
2:18 8 10 mph 1016.3mb 71f 64f
2:12 7 10 mph 1016.3mb 71f 64f
2:06 5 13 mph 1016.3mb 71f 64f
2:00 9 13 mph 1016.2mb 71f 64f
1:54 7 11 mph 1016.2mb 71f 64f
1:48 7 10 mph 1016.2mb 71f 65f
1:42 8 13 mph 1016.1mb 71f 65f
1:36 7 9 mph 1016.1mb 71f 65f
1:30 5 8 mph 1016.2mb 71f 65f
1:24 5 9 mph 1016mb 71f 65f
1:18 5 10 mph 1016.1mb 71f 65f
1:12 6 10 mph 1016.1mb 71f 65f
1:06 8 10 mph 1016mb 71f 66f
1:00 7 11 mph 1016.1mb 71f 66f
12:54 7 9 mph 1015.9mb 71f 66f
12:48 3 8 mph 1016mb 71f 66f
12:42 5 9 mph 1015.9mb 71f 66f
12:36 6 9 mph 1015.9mb 70f 66f
12:30 5 8 mph 1015.8mb 70f 66f
12:24 6 9 mph 1015.7mb 70f 66f
12:18 3 7 mph 1015.6mb 70f 66f
12:12 3 7 mph 1015.5mb 70f 66f
12:06 6 8 mph 1015.4mb 70f 66f
12:00 5 8 mph 1015.3mb 70f 66f
Do 08/28 11:54 5 7 mph 1015.3mb 70f 66f
11:48 5 7 mph 1015.3mb 70f 66f
11:42 3 6 mph 1015.2mb 70f 66f
11:36 5 7 mph 1015.3mb 70f 66f
11:30 3 6 mph 1015.1mb 70f 66f
11:24 3 6 mph 1015.1mb 70f 66f
11:18 3 5 mph 1015.2mb 70f 66f
11:12 5 6 mph 1015mb 70f 67f
11:06 3 6 mph 1015mb 70f 67f
11:00 3 6 mph 1014.9mb 70f 67f
10:54 5 7 mph 1014.9mb 70f 67f
10:48 2 5 mph 1014.9mb 71f 67f
10:42 2 6 mph 1014.8mb 71f 68f
10:36 2 6 mph 1014.8mb 71f 67f
10:30 3 6 mph 1014.8mb 71f 67f
10:24 2 5 mph 1014.8mb 71f 68f
10:18 3 6 mph 1014.7mb 71f 68f
10:12 3 6 mph 1014.7mb 71f 68f
10:06 2 5 mph 1014.7mb 71f 68f
10:00 5 7 mph 1014.5mb 72f 68f
9:54 5 6 mph 1014.5mb 72f 69f
9:48 3 6 mph 1014.4mb 72f 69f